Regional Weather Roundup
Issued by NWS Sterling, VA

Home | Current Version | Previous Version | Graphics & Text | Print | Product List | Glossary On
Versions: 1 2 3 4 5 6 7 8 9 10 11 12 13 14 15 16 17 18 19 20 21 22 23 24 25 26 27 28 29 30 31 32 33 34 35 36 37 38 39 40 41 42 43 44 45 46 47 48 49 50
000
ASUS41 KLWX 280911
RWRLWX

REGIONAL WEATHER ROUNDUP
NATIONAL WEATHER SERVICE BALTIMORE MD/WASHINGTON DC
500 AM EDT WED SEP 28 2016

Note: "FAIR" indicates few or no clouds below 12,000 feet
with no significant weather and/or obstructions to visibility.
 TC=TEMPERATURE CELSIUS

 * =Non NWS site. Station does not report precipitation (e.g. rain,
    snow, etc.), thunder, or fog.

DCZ001-MDZ009-015-VAZ040>042-051-053>054-281000-
WASHINGTON METRO

CITY           SKY/WX    TMP DP  RH WIND       PRES   REMARKS
WASHINGTON NAT CLOUDY    65  64  97 N6        29.96S
DULLES         LGT RAIN  64  62  93 E9        29.95F
ANDREWS AFB    CLOUDY    64  63  97 NE7       29.94S
FT BELVOIR     DRIZZLE   65  64  96 N2        29.94S
QUANTICO       TSTM      67  65  93 E13       29.95R FOG
COLLEGE PARK*  CLOUDY    59  59 100 N6        29.96S
LEESBURG*      LGT RAIN  63  63 100 NE5       29.97S
MANASSAS*      CLOUDY    64  64 100 CALM      29.94S
GAITHERSBURG*  CLOUDY    61  55  82 CALM      30.01S

$$

MDZ006>007-011-014-281000-
BALTIMORE METRO

CITY           SKY/WX    TMP DP  RH WIND       PRES   REMARKS
BWI AIRPORT    FOG       63  62  97 NE7       29.96S VSB 1/4
MD SCIENCE CTR   N/A     63  60  90 MISG      29.98S
ANNAPOLIS      CLOUDY    67  65  93 E7        29.96S
FORT MEADE*    CLOUDY    55  55 100 CALM      29.99S

$$

MDZ012-015-019>023-281000-
MARYLAND EASTERN SHORE

CITY           SKY/WX    TMP DP  RH WIND       PRES   REMARKS
OCEAN CITY     CLOUDY   N/A N/A N/A NE7       29.95R
SALISBURY      CLOUDY    67  66  97 NE7       29.95S FOG
BAY BRIDGE AP* FOG       64  64 100 MISG      29.97R VSB 1/2
CAMBRIDGE*     PTCLDY    63  61  94 NE6       29.94F

$$

MDZ017>025-281000-
SOUTHERN MARYLAND

CITY           SKY/WX    TMP DP  RH WIND       PRES   REMARKS
PATUXENT RIVER CLOUDY    67  65  93 E8        29.93F
ST INIGOES     CLOUDY    69  68  96 NE7       29.93S
LEONARDTOWN*   CLOUDY    64  64 100 E3        29.95F

$$

MDZ003>005-281000-
NORTH CENTRAL MARYLAND

CITY           SKY/WX    TMP DP  RH WIND       PRES   REMARKS
FREDERICK*     NOT AVBL
HAGERSTOWN APT CLOUDY    59  52  77 NE3       29.97F

$$

MDZ501>502-281000-
WESTERN MARYLAND

CITY           SKY/WX    TMP DP  RH WIND       PRES   REMARKS
OAKLAND*       CLEAR     50  37  62 SE3       30.00S
CUMBERLAND*    CLEAR     46  45  93 N3        30.02S

$$

VAZ025>031-281000-
SHENANDOAH VALLEY

CITY           SKY/WX    TMP DP  RH WIND       PRES   REMARKS
WINCHESTER*    CLOUDY    61  55  82 N3        29.95F
FRONT ROYAL*   CLOUDY    57  57 100 CALM      29.94S
LURAY*         PTSUNNY  N/A N/A N/A NE5       29.94S
NEW MARKET*    CLOUDY   N/A N/A N/A CALM      29.95S
STAUNTON*      CLOUDY    59  55  89 CALM      29.96S
WAYNESBORO*    CLOUDY    60  57  88 CALM      29.95S

$$

WVZ021-048>050-054>055-281000-
EASTERN WEST VIRGINIA PANHANDLE

CITY           SKY/WX    TMP DP  RH WIND       PRES   REMARKS
MARTINSBURG    CLOUDY    58  54  86 N5        29.96S
PETERSBURG*    CLEAR     42  40  93 CALM      29.98F

$$

VAZ036>039-050-281000-
CENTRAL FOOTHILLS

CITY           SKY/WX    TMP DP  RH WIND       PRES   REMARKS
CHARLOTTESVILL CLOUDY    67  64  90 NE6       29.93S
CULPEPER*      DRIZZLE   65  65 100 N5        29.94S
ORANGE*          N/A     64  64 100 CALM      29.95R
GORDONSVILLE*  NOT AVBL
WARRENTON*     DRZL/FOG  65  61  87 E3        29.93S VSB 1

$$

VAZ055>057-281000-
NORTH AND CENTRAL PIEDMONT

CITY           SKY/WX    TMP DP  RH WIND       PRES   REMARKS
FREDERICKSBRG* CLOUDY    67  67 100 CALM      29.92R FOG
STAFFORD*      CLOUDY    66  66 100 NE5       29.97R

$$

NCZ024-NYZ072-PAZ021-071-VAZ022-071-281000-
OTHER REGIONAL OBSERVATIONS

CITY           SKY/WX    TMP DP  RH WIND       PRES   REMARKS
NEW YORK CITY  PTCLDY    62  59  90 NE3       30.05R
PHILADELPHIA   PTCLDY    59  57  93 NE3       30.01S
PITTSBURGH     CLEAR     51  45  79 SE5       29.93S
ROANOKE        CLOUDY    62  57  83 W5        29.95S
RICHMOND       LGT RAIN  68  67  96 SE7       29.91F FOG
RALEIGH        CLOUDY    70  69  97 CALM      29.91S

$$

ANZ530>537-281000-
MARINE OBSERVATIONS

STATION/POSITION TIME  TEMP    WIND        PRES
                       AIR SEA DIR/SP/G
                 (UTC) (F)     (DEG/KT/KT) (MB)
THOMAS PT LIGHT  0900   66 74   50/  9/ 10 1015.5F
BALT KEY BRIDGE  0848   64      30/  9/ 10 1014.6F
COVE POINT       0848   67     110/  9/ 12 1014.5F
LEWISETTA        0848   72 74   80/ 13/ 16 1012.9F
SOLOMONS ISLAND  0842   69 75   70/  9/ 12   N/A
PINEY POINT      0848           80/  6/  7   N/A

$$




USA.gov is the U.S. government's official web portal to all federal, state and local government web resources and services.